SCP
0 0 0 0 0 0 0 0 0 0 0 0 0 0 0 0 0 0 0 0 0 0 0 0 0 0 0 0 0 0 0 0 0 0 0 0 0 0
0 0 0 0 0 0 0 0 0 0 0 0 0 0 0 0 0 0 0 0 0 0 0 0 0 0 0 0 0 0 0 0 0 0 0 0 0 0
0 0 0 0 0 0 0 0 0 0 0 0 0 0 0 0 0 0 0 0 0 0 0 0 0 0 0 0 0 0 0 0 0 0 0 0 0 0
0 0 0 0 0 0 0 0 0 0 0 0 0 0 0 0 0 0 0 0 0 0 0 0 0 0 0 0 0 0 0 0 0 0 0 0 0 0
0 0 0 0 0 0 0 0 0 0 0 0 0 0 0 0 1 0 0 0 0 0 0 0 0 0 0 0 0 0 0 0 0 0 0 0 0 0
0 0 0 0 0 0 0 0 0 0 0 0 0 0 0 0 0 1 1 0 0 0 0 0 0 0 0 0 0 0 0 0 0 0 0 0 0 0
0 0 0 0 0 0 0 0 0 0 0 0 0 0 0 0 0 1 1 1 0 0 0 0 0 0 0 0 0 0 0 0 0 0 0 0 0 0
0 0 0 0 0 0 0 0 0 0 0 0 0 0 0 0 0 0 0 0 0 0 0 0 0 0 0 0 0 0 0 0 0 0 0 0 0 0
0 0 0 0 0 0 0 0 0 0 0 0 0 0 0 0 0 0 0 0 0 0 0 0 0 0 0 0 0 0 0 0 0 0 0 0 0 0
0 0 0 0 0 0 0 0 0 0 0 0 0 0 0 0 0 0 0 0 0 0 0 0 0 0 0 0 0 0 0 0 0 0 0 0 0 0
1 0 0 0 0 0 0 0 0 0 0 0 0 0 0 0 0 0 0 0 0 0 0 0 0 0 0 0 0 0 0 0 0 0 0 0 0 0
1 0 0 0 0 0 0 0 0 0 0 0 0 0 0 0 0 0 0 0 0 0 0 0 0 0 0 0 0 0 0 0 0 0 0 0 0 0
1 0 0 0 0 0 0 0 0 0 0 0 0 0 0 0 0 0 0 0 0 0 0 0 0 0 0 0 0 0 0 0 0 0 0 0 0 0
1 0 0 0 0 0 0 0 0 0 0 1 1 1 0 0 0 0 0 0 0 0 0 0 0 0 0 0 0 0 0 0 0 0 0 0 0 0
0 0 0 0 0 0 0 0 0 0 0 1 1 1 0 0 0 0 0 0 0 0 0 0 0 0 0 0 0 0 0 0 0 0 0 0 0 0
0 0 0 0 0 0 0 0 0 0 0 0 0 0 0 0 0 0 0 0 0 0 0 0 0 0 0 0 0 0 0 0 0 0 0 0 0 0
0 0 0 0 0 0 0 0 0 0 0 0 0 0 0 0 0 0 0 0 0 0 0 0 0 0 0 0 0 0 0 0 0 0 0 0 0 0
0 0 0 0 0 0 0 0 0 0 0 0 0 0 0 0 0 0 0 0 0 0 0 0 0 0 0 0 0 0 0 0 0 0 0 0 0 0
0 0 0 0 0 0 0 0 0 0 0 0 0 0 0 0 0 0 0 0 0 0 0 0 0 0 0 0 0 0 0 0 0 0 0 0 0 0
0 0 0 0 0 0 0 0 0 0 0 0 0 0 0 0 0 0 0 0 0 0 0 0 0 0 0 0 0 0 0 0 0 0 0 0 0 0
0 0 0 0 0 0 0 0 0 0 0 0 0 0 0 0 0 0 0 0 0 0 0 0 0 0 0 0 0 0 0 0 0 0 0 0 0 0
0 0 0 0 0 0 0 0 0 0 0 0 0 0 0 0 0 0 0 0 0 0 0 0 0 0 0 0 0 0 0 0 0 0 0 0 0 0
0 0 0 0 0 0 0 0 0 0 0 0 0 0 0 0 0 0 0 0 0 0 0 0 0 0 0 0 0 0 0 0 0 0 0 0 0 0
Wind_Speed
2 2 2 2 2 2 1 1 1 2 2 1 0 1 1 1 3 2 2 6 7 8 8 7 6 6 5 5 5 5 5 5 5 6 6 7 7 7
1 1 2 3 2 2 2 1 1 1 2 1 1 0 1 1 2 1 2 5 8 9 9 8 8 8 7 6 5 5 5 6 6 6 6 6 6 7
2 2 2 2 2 2 2 2 1 1 2 2 1 1 1 2 1 2 2 3 4 8 9 9 9 9 8 7 7 6 6 6 6 6 6 7 6 7
2 2 2 2 2 2 2 2 2 1 1 2 2 2 2 2 1 2 3 3 2 6 10 10 9 9 9 8 8 7 6 6 6 6 6 7 7 7
2 2 2 2 2 2 2 2 2 2 1 2 2 2 2 1 1 2 3 2 3 3 7 8 9 9 9 9 9 8 8 7 7 6 6 6 6 6
2 2 2 2 2 2 2 2 2 2 2 2 2 2 1 1 1 1 2 2 3 3 2 3 6 9 9 8 9 8 8 8 8 7 7 7 6 6
3 3 3 2 2 2 2 2 2 2 2 2 3 2 1 1 1 2 2 2 2 2 1 2 3 3 5 7 8 9 8 8 8 8 7 7 7 7
2 3 2 1 0 1 2 3 3 2 2 2 3 2 3 2 2 2 2 3 3 2 2 3 2 3 3 3 6 8 8 8 8 8 8 8 7 7
2 2 3 2 1 1 2 3 4 5 5 3 3 4 3 2 2 3 3 3 4 3 3 3 2 2 2 3 7 8 8 8 8 8 8 8 8 8
2 2 2 2 2 2 3 2 3 3 4 3 3 4 4 3 3 4 4 4 4 3 2 3 2 2 3 2 6 8 9 9 9 8 8 8 8 8
2 1 1 1 1 2 2 3 3 3 4 5 5 5 6 7 5 3 3 3 4 3 1 2 2 2 2 2 4 7 8 9 9 9 8 8 9 8
2 1 0 0 2 2 2 3 4 3 4 5 4 5 6 6 7 5 3 3 3 3 2 2 2 2 2 2 2 3 4 6 8 8 8 8 8 5
2 2 1 1 2 3 3 4 5 5 5 5 4 4 3 3 3 3 3 3 3 4 3 2 2 2 2 2 2 2 3 3 4 5 7 9 9 7
3 2 2 3 5 6 5 6 7 6 4 4 3 3 2 2 2 3 3 4 4 5 4 3 3 3 3 3 3 2 2 2 3 3 4 6 8 9
2 4 4 6 6 6 7 7 5 3 3 3 3 3 2 2 2 3 3 3 4 4 4 4 4 3 3 3 3 3 2 2 2 3 3 3 4 4
3 4 6 7 6 6 5 4 4 3 2 3 3 3 2 2 2 2 2 2 2 3 3 4 4 3 3 4 3 4 3 3 2 3 2 3 3 3
3 4 4 3 3 3 3 2 2 2 2 2 3 3 2 2 2 2 2 2 2 3 3 2 2 2 3 3 3 4 3 3 3 3 3 3 3 3
3 4 4 3 3 3 2 2 2 2 2 2 2 2 2 2 2 2 2 2 3 3 3 2 2 2 2 3 3 4 3 4 3 3 3 3 4 3
3 4 3 2 2 3 2 2 2 1 1 2 2 2 2 2 2 2 2 2 3 3 3 3 2 2 3 4 3 2 3 3 3 3 3 3 4 3
3 3 3 2 2 2 2 2 2 1 1 2 2 2 2 2 2 2 2 3 3 3 3 2 1 2 3 4 4 4 4 3 3 3 3 3 2 2
3 3 3 3 2 2 1 2 2 1 1 2 2 3 3 2 3 3 3 3 3 3 3 3 3 4 4 2 3 3 2 3 3 3 3 3 2 2
3 3 2 2 2 1 1 2 2 1 2 2 3 3 2 2 3 3 3 2 3 3 4 3 3 3 3 3 3 3 3 2 2 3 3 3 2 2
2 2 2 2 2 2 2 2 3 2 2 2 3 3 3 3 3 3 3 3 3 3 3 3 3 3 3 3 3 3 3 3 2 1 1 2 2 3
Wind_Direction
316 321 307 305 305 310 304 286 277 294 298 273 292 109 134 134 172 188 174 189 197 201 206 209 211 213 218 222 223 227 227 231 236 240 237 237 244 246
286 315 313 316 317 313 315 308 290 259 279 316 331 338 16 296 203 220 226 207 209 210 210 211 211 212 215 217 219 226 228 230 235 238 239 237 241 246
289 281 272 283 303 310 306 307 303 279 268 284 298 311 312 279 244 246 246 216 212 217 213 212 213 213 214 216 220 224 228 233 237 241 243 241 240 241
278 278 274 266 279 295 298 291 290 278 244 267 279 277 260 251 235 238 258 256 239 221 214 215 215 213 213 216 218 222 227 232 238 244 246 248 243 239
276 268 263 263 267 278 280 287 286 295 259 253 266 260 262 268 258 258 267 268 268 240 214 214 217 217 216 217 218 220 223 226 230 235 240 245 245 243
289 288 261 240 247 268 270 284 299 300 289 275 274 269 267 290 275 269 275 270 276 277 253 225 218 220 220 221 221 219 219 222 224 229 234 237 236 238
290 292 270 242 246 253 272 284 292 290 291 284 280 292 292 321 307 293 289 284 277 261 258 249 220 222 220 223 223 223 219 220 221 224 229 231 232 234
306 305 291 285 333 237 263 287 285 275 284 291 290 290 292 302 305 301 302 303 293 278 283 270 234 226 227 215 211 209 212 215 217 220 223 225 226 229
289 293 294 300 318 310 278 272 275 273 267 268 279 283 287 297 301 295 290 286 279 278 280 271 260 255 240 227 192 195 202 209 214 218 221 222 221 221
259 261 259 300 323 320 288 280 271 273 261 258 264 268 275 276 265 272 278 287 279 271 268 270 273 268 271 223 193 197 202 206 211 215 220 221 219 221
272 281 241 235 322 319 291 287 287 282 276 271 267 263 259 259 260 270 273 279 289 289 286 276 282 283 268 246 210 203 207 210 216 219 221 222 221 220
276 254 23 68 274 282 281 285 281 286 292 284 268 259 252 249 246 236 249 266 281 286 287 287 288 299 285 259 211 206 219 223 223 223 224 224 219 217
276 260 241 238 265 256 254 259 264 275 277 271 268 259 249 241 235 229 228 240 261 276 285 300 295 288 270 277 275 236 225 218 214 226 231 230 226 216
285 287 278 265 263 258 250 256 265 272 270 274 275 271 273 270 263 250 243 242 242 249 259 261 268 273 278 280 274 257 244 232 211 214 216 220 227 229
285 294 292 276 265 253 242 249 258 263 271 278 280 278 278 269 267 264 257 251 262 259 255 240 239 256 254 265 268 266 269 258 234 223 213 211 218 218
282 287 281 269 263 258 245 236 236 243 253 269 276 279 285 288 284 277 280 279 270 277 267 251 239 235 251 258 258 263 255 249 247 243 233 230 224 215
277 273 268 269 259 256 255 240 235 241 248 263 279 289 293 293 296 299 291 288 284 283 292 290 272 248 241 253 259 260 262 262 251 243 242 247 236 221
253 261 267 275 280 274 262 255 240 236 244 263 272 274 280 284 283 287 281 282 287 287 287 292 301 299 280 264 249 259 261 266 267 256 244 244 247 232
248 256 261 263 272 279 276 271 266 256 257 272 277 278 279 278 280 287 290 288 287 289 288 287 293 302 297 293 290 270 269 276 274 268 254 239 241 234
256 271 275 278 280 286 290 291 286 281 276 282 285 283 279 280 279 278 278 288 295 297 296 294 298 297 286 285 289 291 274 267 271 267 266 264 259 229
270 273 276 276 280 283 281 278 279 281 293 285 283 285 287 286 282 281 282 291 290 295 296 296 284 279 278 275 278 281 290 276 261 257 253 256 259 244
276 275 279 286 280 275 273 273 274 277 286 288 288 281 279 282 285 285 282 281 283 289 294 293 289 283 280 277 279 287 291 290 271 270 273 255 225 220
269 267 265 276 273 264 263 265 269 270 271 283 290 292 287 284 281 283 292 289 287 294 296 295 298 298 296 290 285 289 289 282 285 305 319 303 219 212